WELCOME TO AIR WEST FLIGHT SUPPORT

Slider

THE RIGHT CHOICE FOR THE BEST SERVICE

OUR GOAL IS TO BE THE MOST ACCOMMODATING FBO IN LETHBRIDGE, AB. WITH EFFICIENT AND PROFFESSIONAL SERVICE

 WE HAVE GOT IT ALL!

  • Great Attitude
  • The Right Equipment
  • Large Facilities
  • Competitive Fuel Prices
  • In-House Aircraft Maintenance
  • In-House Flight Training, Aircraft Rentals
  • Aircraft Sales And Much  More!

Facebook By Weblizar Powered By Weblizar

 


We are located at the Lethbridge County Airport (CYQL) on Ramp 2 at the east end of Taxiway C.   Lethbridge is a key point of entry where you can clear customs using
CANPASS.  The Airport is approximately 5 km south of the City of Lethbridge, which offers convenient access to nearby towns such as Cardston, Crowsnest Pass, Coaldale, Fort MacLeod, Milk River, Pincher Creek and Taber.  Lethbridge and its surrounding area is a great tourist destination

 


Click on image to enlarge

Available data for CYQL from the past 2 hours
LETHBRIDGE VOR, AB
Metar
CYQL 242200Z 10006KT 20SM SCT065 BKN300 19/03 A2972 RMK CU3CS3 SLP069 DENSITY ALT 4400FT

22:00 UTC

Wind: 100° 6kt

Visibility: 20 SM

Sky: SCT 6500 ft

Temp: 19 deg C / 66.2 deg F

Dewpoint: 3 deg C / 37.4 deg F

Pressure: 29.72 inHg

TAF
TAF CYQL 241738Z 2418/2506 34008KT P6SM FEW030 FM242100 30010KT P6SM SCT080 TEMPO 2421/2503 P6SM -SHRA BKN080 PROB30 2421/2503 VRB15G25KT 5SM TSRA BKN050CB FM250300 28010KT P6SM BKN070 RMK NXT FCST BY 250000Z